Regional Weather Roundup
Issued by NWS

Home | Current Version | Previous Version | Text Only | Print | Product List | Glossary Off
Versions: 1 2 3 4 5 6 7 8 9 10 11 12 13 14 15 16 17 18 19 20 21 22 23 24 25 26 27 28 29 30 31 32 33 34 35 36 37 38 39 40 41 42 43 44 45 46 47 48 49 50

000
ASUS44 KMEG 180700
RWRTN
TENNESSEE HOURLY STATE WEATHER ROUNDUP
NATIONAL WEATHER SERVICE MEMPHIS TN
200 AM CDT FRI APR 18 2014

TNZ002-004-019-021-049-052-054-088>092-180800-
WEST TENNESSEE

CITY           SKY/WX    TMP DP  RH WIND       PRES   REMARKS
MEMPHIS INTL   CLOUDY    58  46  64 CALM      30.22S
NWS MEMPHIS      N/A     54 N/A N/A MISG        N/A
JACKSON        CLOUDY    53  45  74 CALM      30.24S
DYERSBURG      MOCLDY    54  39  58 CALM      30.25S
UNION CITY     PTCLDY    48  43  81 CALM      30.23F
LEXINGTON      CLOUDY    52  45  76 CALM      30.24S
$$

TNZ008-025-027-028-033-062-065-066-180800-
NORTH MIDDLE TENNESSEE

CITY           SKY/WX    TMP DP  RH WIND       PRES   REMARKS
NASHVILLE      CLOUDY    52  44  74 CALM      30.28S
CLARKSVILLE    CLOUDY    50  40  68 CALM      30.25S
COOKEVILLE       N/A     52  45  76 CALM      30.29S
CROSSVILLE     CLOUDY    52  38  58 S3        30.32R
$$

TNZ061-075-076-078-094-096-097-180800-
SOUTH MIDDLE TENNESSEE

CITY           SKY/WX    TMP DP  RH WIND       PRES   REMARKS
TULLAHOMA      CLEAR     55  37  50 S7        30.29F
WINCHESTER     CLEAR     57  37  47 SE10      30.29F
MCMINNVILLE    PTCLDY    55  39  54 S3        30.30S
COLUMBIA       CLOUDY    59  48  67 SE7       30.25F
$$

TNZ017-018-042-046-047-180800-
NORTHEAST TENNESSEE

CITY           SKY/WX    TMP DP  RH WIND       PRES   REMARKS
TRI CITIES     MOCLDY    42  27  55 N5        30.35F
ELIZABETHTON   SUNNY     46  23  39 CALM      30.36S
$$

TNZ012-013-036-069-073-074-180800-
CENTRAL EAST TENNESSEE

CITY           SKY/WX    TMP DP  RH WIND       PRES   REMARKS
KNOXVILLE      CLOUDY    50  40  68 CALM      30.29F
OAK RIDGE      CLOUDY    50  41  71 CALM      30.32S
$$

TNZ083-085-099-180800-
SOUTHEAST TENNESSEE

CITY           SKY/WX    TMP DP  RH WIND       PRES   REMARKS
CHATTANOOGA    CLOUDY    58  35  42 S7        30.31S
$$

SKY/WX REPORTED AS FAIR MEANS FEW OR NO CLOUDS BELOW
12 THOUSAND FEET.




USA.gov is the U.S. government's official web portal to all federal, state and local government web resources and services.